{"data":{"norad_id":62893,"intl_designator":"2025-024Q","name":"STARLINK-32892","alt_names":[],"object_type":"PAYLOAD","status":"ACTIVE","operator":null,"country":"US","launch_date":"2025-02-04","launch_site_code":"AFETR","launch_vehicle":null,"mission":null,"orbit_class":"UNKNOWN","rcs_meters":null,"size_class":null,"mass_kg":null,"dimensions":null,"purposes":["comms"],"wikipedia_slug":null,"has_3d_model":false,"image_url":null,"decayed_at":null,"tle_current":{"epoch":"2026-09-21T09:21:31.468320Z","epoch_age_seconds":91667,"freshness":"FRESH","line1":"1 62893U 25024Q   26264.38994755  .00011250  00000+0  41767-3 0  9997","line2":"2 62893  43.0014 300.3329 0001863 273.6447  86.4192 15.27582777 92195","mean_motion":15.27582777,"eccentricity":0.0001863,"inclination_deg":43.0014,"raan_deg":300.3329,"arg_perigee_deg":273.6447,"mean_anomaly_deg":86.4192,"bstar":0.00041767,"rev_number":9219,"period_min":94.266577345681,"perigee_km":481.76254329468,"apogee_km":484.31901813578,"semimajor_km":6861.1777807152,"source":"CELESTRAK","updated_at":"2026-09-22T09:00:49.704805Z"}}}